Погода в Чернаве

Россия / Рязанская область     53°36′42″N   39°08′17″E
темп.,
°C
ветер,
м/с
пор.,
м/с
влажн.,
%
обл.,
%
осадки,
мм/ч
давл.,
гПа
погр.,
м
21 января, пт
пт2100:00−10ю71594100 0.1 1009405
03:00−8ю71595100 0.7 1007439
06:00−7ю71595100 0.9 1004495
09:00−7ююв81595100 2.5 1003583
12:00−5ю71495100 1.3 1002647
15:00−3ю61196100 2.1 1000570
18:00−3ююз51091100 0.9 1001555
21:00−8ю51294100 0.9 1002279
22 января, сб
сб2200:00−8ю6159499 0.1 1003413
03:00−6ю71494100 0.4 1003582
06:00−6ю71394100 0.3 1004501
09:00−7ю6119485 0.4 1007363
12:00−7ю51094100 0.1 1009397
15:00−6ююв589492 0.2 1010395
18:00−9ююв3896100 0.1 1013147
21:00−11ююв369777 0.1 1015109
23 января, вс
вс2300:00−12ю249895 0.1 101759
03:00−17ююв22100100 0.1 101912
06:00−17юв2210099 0.0 102214
09:00−18вюв2210099 0.1 102511
12:00−12в239784 0.0 102680
15:00−11св3596100 0.0 1028112
18:00−12св3897100 0.0 1029125
21:00−11св51195100 0.0 1030207
24 января, пн
пн2400:00−9св61394100 0.0 1030259
03:00−8св61295100 0.4 1030298
06:00−7св51295100 0.2 1029325
09:00−6всв5109699 0.4 1030421
12:00−6всв5991100 0.0 1030352
15:00−8всв479370 0.0 1030222
18:00−11всв3796100 0.0 1031129
21:00−12в3896100 0.0 1030118
25 января, вт
вт2500:00−13в249791 0.0 102948
03:00−18в2210079 0.0 102925
06:00−15вюв249898 0.0 102845
09:00−14юв379886 0.0 1027114
12:00−10ююв3796100 0.1 1026219
15:00−8юв379698 0.1 1025261
18:00−8юв389678 0.1 1024197
21:00−10юв389780 0.3 1024160